Location: Veytaux
(46.4185°N, 6.9320°E)
Time: 08:57:32
(UTC+00:00)

Cosmos 2237 Rocket - Pass Details

Date: 27 May 2022
Orbit: 834 x 851 km, 71.0° (Epoch: 01 July)

Event Time Altitude Azimuth Distance (km) Brightness Sun altitude
Exits shadow 00:57:03 30° 235° (SW) 1,465 3.0 -19.5°
Maximum altitude 00:59:43 58° 301° (WNW) 988 2.5 -19.3°
Drops below altitude 10° 01:05:21 10° 20° (NNE) 2,486 5.9 -18.9°
Sets 01:07:52 0° 25° (NNE) 3,427 7.1 -18.7°
